• In Hungary
  • List of Countries
  • For 7 days
  • Water Temperature
  • Satellite Maps
  • Weather Map
  • News
  • Weather Widgets
  • user-avatar
    Login

    Hourly Weather Razdolnoe

    Today, 23 October, Tuesday

    Time Temperature Precipitation Wind Pressure Humidity
    00:00 +8°C° 0 mm 4 mps 745 mmHg 57%
    01:00 +8°C° 0 mm 4 mps 744 mmHg 59%
    02:00 +8°C° 0 mm 4 mps 744 mmHg 60%
    03:00 +8°C° 0 mm 4 mps 744 mmHg 61%
    04:00 +8°C° 0 mm 4 mps 743 mmHg 62%
    05:00 +8°C° 0 mm 4 mps 742 mmHg 63%
    06:00 +8°C° 0 mm 4 mps 742 mmHg 64%
    07:00 +8°C° 0.1 mm 5 mps 741 mmHg 64%
    08:00 +8°C° 0.1 mm 5 mps 741 mmHg 65%
    09:00 +8°C° 0.1 mm 5 mps 741 mmHg 66%
    10:00 +9°C° 0.2 mm 5 mps 740 mmHg 67%
    11:00 +9°C° 0.2 mm 6 mps 739 mmHg 69%
    12:00 +9°C° 0.2 mm 6 mps 739 mmHg 71%
    13:00 +9°C° 0.1 mm 5 mps 738 mmHg 73%
    14:00 +9°C° 0.1 mm 5 mps 738 mmHg 76%
    15:00 +9°C° 0.1 mm 5 mps 737 mmHg 78%
    16:00 +9°C° 0.1 mm 5 mps 737 mmHg 81%
    17:00 +10°C° 0.1 mm 4 mps 736 mmHg 83%
    18:00 +10°C° 0.1 mm 4 mps 736 mmHg 86%
    19:00 +10°C° 0 mm 4 mps 736 mmHg 88%
    20:00 +10°C° 0 mm 4 mps 736 mmHg 90%
    21:00 +8°C° 0 mm 4 mps 735 mmHg 92%
    22:00 +9°C° 0 mm 3 mps 735 mmHg 90%
    23:00 +9°C° 0 mm 3 mps 735 mmHg 88%

    Tomorrow, 24 October, Wednesday

    Time Temperature Precipitation Wind Pressure Humidity
    00:00 +9°C° 0 mm 3 mps 734 mmHg 86%
    01:00 +8°C° 0 mm 3 mps 734 mmHg 87%
    02:00 +7°C° 0 mm 3 mps 734 mmHg 88%
    03:00 +7°C° 0 mm 3 mps 733 mmHg 89%
    04:00 +5°C° 0 mm 4 mps 733 mmHg 89%
    05:00 +5°C° 0 mm 4 mps 732 mmHg 88%
    06:00 +5°C° 0 mm 4 mps 732 mmHg 87%
    07:00 +6°C° 0 mm 5 mps 732 mmHg 79%
    08:00 +7°C° 0 mm 6 mps 732 mmHg 71%
    09:00 +8°C° 0 mm 7 mps 732 mmHg 63%
    10:00 +9°C° 0 mm 7 mps 731 mmHg 60%
    11:00 +10°C° 0 mm 7 mps 731 mmHg 57%
    12:00 +11°C° 0 mm 8 mps 730 mmHg 54%
    13:00 +11°C° 0 mm 8 mps 730 mmHg 54%
    14:00 +12°C° 0 mm 8 mps 730 mmHg 54%
    15:00 +12°C° 0 mm 8 mps 729 mmHg 53%
    16:00 +11°C° 0.1 mm 7 mps 729 mmHg 60%
    17:00 +11°C° 0.1 mm 6 mps 728 mmHg 67%
    18:00 +10°C° 0.1 mm 6 mps 728 mmHg 74%
    19:00 +10°C° 0.4 mm 6 mps 728 mmHg 75%
    20:00 +11°C° 0.4 mm 7 mps 727 mmHg 77%
    21:00 +11°C° 0.4 mm 7 mps 727 mmHg 78%
    22:00 +11°C° 0.4 mm 7 mps 727 mmHg 80%
    23:00 +11°C° 0.4 mm 7 mps 726 mmHg 81%

    Day after tomorrow, 25 October, Thursday

    Time Temperature Precipitation Wind Pressure Humidity
    00:00 +11°C° 0.4 mm 7 mps 726 mmHg 82%
    01:00 +11°C° 0.6 mm 7 mps 726 mmHg 84%
    02:00 +11°C° 0.6 mm 7 mps 725 mmHg 85%
    03:00 +11°C° 0.6 mm 7 mps 725 mmHg 87%
    04:00 +11°C° 1.4 mm 8 mps 725 mmHg 86%
    05:00 +11°C° 1.4 mm 8 mps 724 mmHg 85%
    06:00 +11°C° 1.4 mm 9 mps 724 mmHg 84%
    07:00 +11°C° 0.4 mm 9 mps 723 mmHg 84%
    08:00 +12°C° 0.4 mm 9 mps 723 mmHg 84%
    09:00 +12°C° 0.4 mm 9 mps 723 mmHg 85%
    10:00 +12°C° 0.6 mm 9 mps 723 mmHg 83%
    11:00 +12°C° 0.6 mm 9 mps 723 mmHg 81%
    12:00 +12°C° 0.6 mm 9 mps 723 mmHg 80%
    13:00 +11°C° 0.3 mm 9 mps 723 mmHg 73%
    14:00 +10°C° 0.3 mm 8 mps 724 mmHg 66%
    15:00 +10°C° 0.3 mm 7 mps 724 mmHg 59%
    16:00 +9°C° 0 mm 7 mps 724 mmHg 59%
    17:00 +8°C° 0 mm 6 mps 725 mmHg 59%
    18:00 +7°C° 0 mm 6 mps 725 mmHg 58%
    19:00 +7°C° 0 mm 6 mps 726 mmHg 60%
    20:00 +7°C° 0 mm 6 mps 726 mmHg 62%
    21:00 +5°C° 0 mm 6 mps 726 mmHg 64%
    22:00 +5°C° 0 mm 6 mps 727 mmHg 65%
    23:00 +5°C° 0 mm 6 mps 727 mmHg 66%

    26 October, Friday

    Time Temperature Precipitation Wind Pressure Humidity
    00:00 +4°C° 0 mm 6 mps 727 mmHg 68%
    01:00 +4°C° 0 mm 6 mps 727 mmHg 71%
    02:00 +3°C° 0 mm 5 mps 727 mmHg 74%
    03:00 +3°C° 0 mm 5 mps 728 mmHg 77%
    04:00 +3°C° 0 mm 5 mps 728 mmHg 79%
    05:00 +2°C° 0 mm 5 mps 728 mmHg 81%
    06:00 +2°C° 0 mm 5 mps 729 mmHg 84%
    07:00 +2°C° 0 mm 5 mps 729 mmHg 81%
    08:00 +3°C° 0 mm 6 mps 730 mmHg 79%
    09:00 +3°C° 0 mm 6 mps 731 mmHg 76%
    10:00 +4°C° 0 mm 6 mps 731 mmHg 73%
    11:00 +4°C° 0 mm 6 mps 731 mmHg 69%
    12:00 +5°C° 0 mm 6 mps 732 mmHg 66%
    13:00 +5°C° 0.1 mm 6 mps 732 mmHg 65%
    14:00 +5°C° 0.1 mm 6 mps 732 mmHg 64%
    15:00 +6°C° 0.1 mm 5 mps 733 mmHg 63%
    16:00 +5°C° 0 mm 5 mps 733 mmHg 64%
    17:00 +4°C° 0 mm 4 mps 734 mmHg 65%
    18:00 +4°C° 0 mm 4 mps 734 mmHg 66%
    19:00 +3°C° 0 mm 4 mps 735 mmHg 66%
    20:00 +3°C° 0 mm 4 mps 735 mmHg 66%
    21:00 +1°C° 0 mm 4 mps 736 mmHg 66%
    22:00 +1°C° 0 mm 4 mps 736 mmHg 67%
    23:00 +1°C° 0 mm 4 mps 737 mmHg 67%

    27 October, Saturday

    Time Temperature Precipitation Wind Pressure Humidity
    00:00 0°C° 0 mm 4 mps 737 mmHg 68%
    01:00 0°C° 0 mm 4 mps 737 mmHg 70%
    02:00 0°C° 0 mm 4 mps 738 mmHg 71%
    03:00 0°C° 0 mm 4 mps 738 mmHg 73%
    04:00 -1°C° 0 mm 4 mps 739 mmHg 74%
    05:00 -1°C° 0 mm 4 mps 739 mmHg 75%
    06:00 -1°C° 0 mm 4 mps 740 mmHg 77%
    07:00 0°C° 0 mm 5 mps 740 mmHg 76%
    08:00 +1°C° 0 mm 5 mps 741 mmHg 75%
    09:00 +1°C° 0 mm 6 mps 741 mmHg 74%
    10:00 +2°C° 0 mm 6 mps 742 mmHg 70%
    11:00 +3°C° 0 mm 6 mps 742 mmHg 65%
    12:00 +4°C° 0 mm 7 mps 743 mmHg 60%
    13:00 +5°C° 0 mm 6 mps 743 mmHg 59%
    14:00 +5°C° 0 mm 6 mps 743 mmHg 57%
    15:00 +5°C° 0 mm 6 mps 743 mmHg 55%
    16:00 +5°C° 0 mm 5 mps 744 mmHg 60%
    17:00 +4°C° 0 mm 4 mps 744 mmHg 65%
    18:00 +4°C° 0 mm 3 mps 745 mmHg 70%
    19:00 +3°C° 0 mm 3 mps 745 mmHg 73%
    20:00 +3°C° 0 mm 3 mps 745 mmHg 76%
    21:00 +3°C° 0 mm 3 mps 745 mmHg 79%
    22:00 +3°C° 0 mm 3 mps 745 mmHg 78%
    23:00 +3°C° 0 mm 3 mps 746 mmHg 77%

    28 October, Sunday

    Time Temperature Precipitation Wind Pressure Humidity
    00:00 +4°C° 0 mm 3 mps 746 mmHg 77%
    01:00 +4°C° 0 mm 4 mps 746 mmHg 76%
    02:00 +4°C° 0 mm 4 mps 746 mmHg 75%
    03:00 +5°C° 0 mm 5 mps 746 mmHg 74%
    04:00 +5°C° 0 mm 5 mps 746 mmHg 72%
    05:00 +5°C° 0 mm 5 mps 746 mmHg 71%
    06:00 +5°C° 0 mm 6 mps 746 mmHg 69%
    07:00 +5°C° 0 mm 6 mps 746 mmHg 70%
    08:00 +6°C° 0 mm 7 mps 746 mmHg 70%
    09:00 +6°C° 0 mm 7 mps 746 mmHg 71%
    10:00 +8°C° 0.1 mm 7 mps 746 mmHg 68%
    11:00 +9°C° 0.1 mm 8 mps 746 mmHg 65%
    12:00 +10°C° 0.1 mm 8 mps 746 mmHg 63%
    13:00 +11°C° 0 mm 8 mps 746 mmHg 62%
    14:00 +11°C° 0 mm 8 mps 746 mmHg 60%
    15:00 +12°C° 0 mm 8 mps 746 mmHg 59%
    16:00 +11°C° 0 mm 8 mps 746 mmHg 64%
    17:00 +11°C° 0 mm 8 mps 746 mmHg 68%
    18:00 +10°C° 0 mm 7 mps 746 mmHg 73%
    19:00 +10°C° 0 mm 8 mps 746 mmHg 72%
    20:00 +10°C° 0 mm 8 mps 746 mmHg 71%
    21:00 +10°C° 0 mm 8 mps 746 mmHg 70%
    22:00 +10°C° 0 mm 8 mps 746 mmHg 68%
    23:00 +9°C° 0 mm 8 mps 746 mmHg 66%

    29 October, Monday

    Time Temperature Precipitation Wind Pressure Humidity
    00:00 +9°C° 0 mm 8 mps 746 mmHg 64%
    01:00 +9°C° 0 mm 8 mps 746 mmHg 63%
    02:00 +9°C° 0 mm 8 mps 746 mmHg 61%
    03:00 +9°C° 0 mm 8 mps 745 mmHg 60%
    04:00 +9°C° 0 mm 8 mps 745 mmHg 64%
    05:00 +9°C° 0 mm 7 mps 745 mmHg 68%
    06:00 +9°C° 0 mm 7 mps 745 mmHg 72%
    07:00 +9°C° 0 mm 7 mps 746 mmHg 71%
    08:00 +10°C° 0 mm 7 mps 746 mmHg 70%
    09:00 +10°C° 0 mm 7 mps 746 mmHg 70%
    10:00 +11°C° 0 mm 7 mps 747 mmHg 64%
    11:00 +14°C° 0 mm 7 mps 747 mmHg 59%
    12:00 +15°C° 0 mm 7 mps 747 mmHg 54%
    13:00 +15°C° 0 mm 7 mps 747 mmHg 53%
    14:00 +15°C° 0 mm 7 mps 747 mmHg 52%
    15:00 +16°C° 0 mm 6 mps 747 mmHg 51%
    16:00 +14°C° 0 mm 5 mps 747 mmHg 56%
    17:00 +13°C° 0 mm 5 mps 747 mmHg 61%
    18:00 +12°C° 0 mm 4 mps 748 mmHg 66%
    19:00 +12°C° 0 mm 4 mps 748 mmHg 70%
    20:00 +11°C° 0 mm 4 mps 748 mmHg 73%
    21:00 +11°C° 0 mm 3 mps 748 mmHg 76%
    22:00 +10°C° 0 mm 3 mps 748 mmHg 79%
    23:00 +10°C° 0 mm 3 mps 748 mmHg 81%
    Show more